{"data":{"norad_id":62950,"epoch":"2026-09-21T20:39:34.200000Z","epoch_age_seconds":47539,"freshness":"FRESH","line1":"1 62950U 25029C   26264.86081250  .00015707  00000+0  51642-3 0  9990","line2":"2 62950  53.1590  39.7469 0000874  66.1086 294.0007 15.31725843 91383","mean_motion":15.31725843,"eccentricity":8.74e-5,"inclination_deg":53.159,"raan_deg":39.7469,"arg_perigee_deg":66.1086,"mean_anomaly_deg":294.0007,"bstar":0.00051642,"rev_number":9138,"period_min":94.011601787671,"perigee_km":470.06437455406,"apogee_km":471.26154478701,"semimajor_km":6848.7999596705,"source":"CELESTRAK","updated_at":"2026-09-22T09:00:49.711361Z"}}